This is the latest recevied weather packets stored in our database for station/object NO3U. If no packets are shown the sender has not sent any weather packets the latest 10 day(s).
| Time | Temp. | Humidity | Pressure | Rain* | Wind** | Luminosity | Snow |
|---|---|---|---|---|---|---|---|
| 1777888318 | 8.33° C | 78% | 1011.4 hPa | 0 mm | - | 0 W/m² | - |
| 1777888015 | 7.78° C | 82% | 1011.4 hPa | 0 mm | - | 0 W/m² | - |
| 1777887712 | 7.78° C | 83% | 1011.2 hPa | 0 mm | - | 0 W/m² | - |
| 1777887408 | 7.22° C | 84% | 1011.4 hPa | 0 mm | - | 0 W/m² | - |
| 1777887098 | 7.22° C | 84% | 1011.4 hPa | 0 mm | - | 0 W/m² | - |
| 1777886794 | 7.22° C | 87% | 1011.5 hPa | 0 mm | - | 0 W/m² | - |
| 1777886490 | 6.67° C | 88% | 1011.6 hPa | 0 mm | - | 0 W/m² | - |
| 1777886189 | 7.22° C | 88% | 1011.5 hPa | 0 mm | - | 0 W/m² | - |
| 1777885886 | 7.22° C | 87% | 1011.4 hPa | 0 mm | - | 0 W/m² | - |
| 1777885585 | 6.67° C | 88% | 1011.6 hPa | 0 mm | - | 0 W/m² | - |
| 1777885283 | 7.22° C | 89% | 1012 hPa | 0 mm | - | 0 W/m² | - |
| 1777884980 | 6.11° C | 92% | 1011.6 hPa | 0 mm | - | 0 W/m² | - |
| 1777884675 | 6.11° C | 95% | 1011.8 hPa | 0 mm | - | 0 W/m² | - |
| 1777884373 | 6.11° C | 95% | 1012 hPa | 0 mm | - | 0 W/m² | - |
| 1777884069 | 6.11° C | 95% | 1012.1 hPa | 0 mm | - | 0 W/m² | - |
| 1777883767 | 5.56° C | 95% | 1012.2 hPa | 0 mm | - | 0 W/m² | - |
| 1777883463 | 5.56° C | 95% | 1012.3 hPa | 0 mm | - | 0 W/m² | - |
| 1777883159 | 5.56° C | 95% | 1012.4 hPa | 0 mm | - | 0 W/m² | - |
| 1777882855 | 5.56° C | 95% | 1012.2 hPa | 0 mm | - | 0 W/m² | - |
| 1777882553 | 5.56° C | 96% | 1012.4 hPa | 0 mm | - | 0 W/m² | - |
| 1777882249 | 5.56° C | 95% | 1012.5 hPa | 0 mm | - | 0 W/m² | - |
| 1777881946 | 5.56° C | 95% | 1012.5 hPa | 0 mm | - | 0 W/m² | - |
| 1777881642 | 5.56° C | 95% | 1012.6 hPa | 0 mm | - | 0 W/m² | - |
| 1777881339 | 5.56° C | 94% | 1012.5 hPa | 0 mm | - | 0 W/m² | - |
| 1777881036 | 5.56° C | 94% | 1012.7 hPa | 0 mm | - | 0 W/m² | - |
* Rain latest hour (hover to see other rain measurements)
** Current wind speed in m/s (hover to see current wind gust speed)